Salina, KS

4:29 PM CST on January 18, 2018 (GMT -0600)
Salina Municipal

Weather History for KSLN - September, 2012

Change the Weather History Date:

Monday, September 17, 2012

  Actual Average Record
Temperature  
Mean Temperature 62 °F 70 °F  
Max Temperature 71 °F 81 °F 103 °F (1953)
Min Temperature 52 °F 58 °F 34 °F (1903)
Degree Days  
Heating Degree Days 3 2  
Month to date heating degree days 19 11  
Since 1 July heating degree days 19 12  
Cooling Degree Days 0 6  
Month to date cooling degree days 136 148  
Year to date cooling degree days 2014 1555  
Growing Degree Days 13 (Base 50)    
Moisture  
Dew Point 54 °F    
Average Humidity 77    
Maximum Humidity 93    
Minimum Humidity 61    
Precipitation  
Precipitation 0.00 in 0.09 in 1.92 in (1978)
Month to date precipitation 0.85 1.56  
Year to date precipitation 15.18 25.90  
Sea Level Pressure  
Sea Level Pressure 29.95 in    
Wind  
Wind Speed 9 mph (North)    
Max Wind Speed 25 mph    
Max Gust Speed 29 mph    
Visibility 9 miles    
Events      
T = Trace of Precipitation, MM = Missing Value Source: NWS Daily Summary

Daily Weather History Graph

Daily Weather History Graph

Search for Another Location

Airport or City:

Trip Planner

Search our weather history database for the weather conditions in past years. The results will help you decide how hot, cold, wet, or windy it might be!

Date:

Astronomy

Sep. 17, 2012 Rise Set
Actual Time 7:14 AM CDT 7:34 PM CDT
Civil Twilight 6:47 AM CDT 8:01 PM CDT
Nautical Twilight 6:16 AM CDT 8:32 PM CDT
Astronomical Twilight 5:44 AM CDT 9:04 PM CDT
Moon 9:03 AM CDT (9/17) 8:19 PM CDT (9/17)
Length of Visible Light 13h 13m
Length of Day
12h 20m
Waxing Crescent, 3% of the Moon is Illuminated
Sep 17
Waxing Crescent
Sep 22
First Quarter
Sep 29
Full
Oct 8
Last Quarter
Oct 15
New

Hourly Weather History & Observations

Time (CDT) Temp. Dew Point Humidity Pressure Visibility Wind Dir Wind Speed Gust Speed Precip Events Conditions
12:53 AM 62.1 °F 57.0 °F 84% 29.91 in 10.0 mi South 5.8 mph - N/A   Clear
1:53 AM 59.0 °F 55.9 °F 90% 29.91 in 8.0 mi South 3.5 mph - N/A   Clear
2:53 AM 59.0 °F 55.9 °F 90% 29.89 in 8.0 mi SSE 4.6 mph - N/A   Clear
3:53 AM 57.9 °F 55.0 °F 90% 29.88 in 6.0 mi South 3.5 mph - N/A   Clear
4:53 AM 57.9 °F 55.0 °F 90% 29.88 in 7.0 mi SE 4.6 mph - N/A   Clear
5:53 AM 57.9 °F 55.0 °F 90% 29.88 in 7.0 mi ESE 3.5 mph - N/A   Clear
6:53 AM 55.9 °F 53.1 °F 90% 29.88 in 7.0 mi SSE 3.5 mph - N/A   Clear
7:53 AM 55.9 °F 53.1 °F 90% 29.89 in 5.0 mi Calm Calm - N/A   Clear
8:53 AM 61.0 °F 57.0 °F 87% 29.89 in 6.0 mi WSW 5.8 mph - N/A   Clear
9:34 AM 64.4 °F 57.2 °F 77% 29.92 in 10.0 mi West 11.5 mph - N/A   Mostly Cloudy
9:53 AM 64.0 °F 57.9 °F 80% 29.90 in 10.0 mi West 8.1 mph - N/A   Overcast
10:53 AM 64.9 °F 57.9 °F 78% 29.93 in 9.0 mi NW 13.8 mph - N/A   Overcast
11:53 AM 68.0 °F 57.9 °F 70% 29.94 in 10.0 mi North 12.7 mph - N/A   Overcast
11:55 AM 69.8 °F 57.2 °F 64% 29.96 in 10.0 mi NNW 12.7 mph - N/A   Overcast
12:53 PM 71.1 °F 57.0 °F 61% 29.94 in 10.0 mi North 16.1 mph 24.2 mph N/A   Mostly Cloudy
1:53 PM 66.0 °F 55.9 °F 70% 29.95 in 10.0 mi North 21.9 mph - N/A   Mostly Cloudy
2:53 PM 64.9 °F 55.0 °F 70% 29.94 in 10.0 mi NNE 16.1 mph 23.0 mph N/A   Overcast
3:53 PM 64.0 °F 55.0 °F 73% 29.96 in 10.0 mi North 19.6 mph - N/A   Overcast
4:53 PM 63.0 °F 52.0 °F 67% 29.96 in 10.0 mi North 23.0 mph - N/A   Overcast
5:53 PM 63.0 °F 51.1 °F 65% 30.00 in 10.0 mi NNE 13.8 mph 23.0 mph N/A   Overcast
6:53 PM 64.0 °F 51.1 °F 63% 30.00 in 10.0 mi NNE 13.8 mph - N/A   Scattered Clouds
7:53 PM 64.0 °F 51.1 °F 63% 30.01 in 10.0 mi NNE 9.2 mph - N/A   Clear
8:53 PM 61.0 °F 50.0 °F 67% 30.04 in 10.0 mi North 8.1 mph - N/A   Clear
9:53 PM 60.1 °F 48.0 °F 64% 30.07 in 10.0 mi NNE 5.8 mph - N/A   Clear
10:53 PM 57.9 °F 46.9 °F 67% 30.08 in 10.0 mi NNE 3.5 mph - N/A   Clear
11:53 PM 53.1 °F 46.0 °F 77% 30.09 in 10.0 mi NW 4.6 mph - N/A   Clear